sat.trackr.live / text

‹ back to catalog

UNKNOWN

NORAD 87320

UNKNOWN UNKNOWN UNKNOWN

§ Identity

Operator
Country
Launch date
Launch site
Launch vehicle
Mass (kg)
RCS (m²)

External: N2YO · Heavens-Above

§ Orbital elements

Epoch: 2026-05-23T04:03:08.211456Z

Period
105.06 min
Inclination
66.5940°
Eccentricity
0.0425468
Mean motion
13.70669091 rev/d
Perigee alt
683.4 km
Apogee alt
1,311.0 km
Semi-major
7,375.3 km
B*
5.6020e-4
RAAN
58.9586°
Arg perigee
311.7764°
Mean anomaly
44.7660°
Rev number
61,586

§ Raw data

UNKNOWN1 87320U          26143.16884504  .00000870  00000+0  56020-3 0  99922 87320  66.5940  58.9586 0425468 311.7764  44.7660 13.70669091615866

JSON: /api/v1/satellites/87320 · /tle

For live sub-satellite position, see the globe view (requires WebGL).

§ Visibility from observer

Set your observer location to see the next 7 days of passes ≥ 10°. The values pass through the URL so the page stays shareable.

No JS? Fill the form by hand. The geolocation button needs JavaScript.